Weather History for New River MCAS, NC

Change the Weather History Date:

Saturday, May 24, 2014

  Actual Average Record
Temperature  
Mean Temperature 72 °F -  
Max Temperature 81 °F 80 °F 95 °F (2011)
Min Temperature 64 °F 59 °F 50 °F (2002)
Cooling Degree Days 7    
Growing Degree Days 22 (Base 50)    
Moisture  
Dew Point 56 °F    
Average Humidity 63    
Maximum Humidity 94    
Minimum Humidity 29    
Precipitation  
Precipitation 0.00 in - - ()
Sea Level Pressure  
Sea Level Pressure 30.05 in    
Wind  
Wind Speed 6 mph (North)    
Max Wind Speed 16 mph    
Max Gust Speed 18 mph    
Visibility 10 miles    
Events Thunderstorm    
Averages and records for this station are not official NWS values.
T = Trace of Precipitation, MM = Missing Value Source: NWS Daily Summary

Daily Weather History Graph

Daily Weather History Graph

Search for Another Location

Airport:

Trip Planner

Search our weather history database for the weather conditions in past years. The results will help you decide how hot, cold, wet, or windy it might be!

Date:

Astronomy

May. 24, 2014 Rise Set
Actual Time 6:01 AM EDT 8:12 PM EDT
Civil Twilight 5:32 AM EDT 8:41 PM EDT
Nautical Twilight 4:57 AM EDT 9:16 PM EDT
Astronomical Twilight 4:19 AM EDT 9:53 PM EDT
Moon 3:18 AM EDT (5/24) 4:16 PM EDT (5/24)
Length of Visible Light 15h 08m
Length of Day
14h 11m
Waning Crescent, 18% of the Moon is Illuminated
May 24
Waning Crescent
May 28
New
Jun 5
First Quarter
Jun 13
Full
Jun 19
Last Quarter

Hourly Weather History & Observations

Time (EDT) Temp. Dew Point Humidity Pressure Visibility Wind Dir Wind Speed Gust Speed Precip Events Conditions
12:36 AM 71.1 °F 69.1 °F 93% 29.96 in 7.0 mi Calm Calm - N/A Thunderstorm Thunderstorm
12:51 AM 71.6 °F 69.8 °F 94% 29.95 in 7.0 mi Calm Calm - N/A   Mostly Cloudy
12:56 AM 71.1 °F 69.1 °F 93% 29.96 in 7.0 mi Calm Calm - N/A   Mostly Cloudy
1:56 AM 71.1 °F 69.1 °F 93% 29.96 in 8.0 mi Calm Calm - N/A   Mostly Cloudy
2:56 AM 70.0 °F 66.9 °F 90% 29.95 in 9.0 mi NW 6.9 mph - N/A   Clear
3:56 AM 68.0 °F 59.0 °F 73% 29.96 in 10.0 mi NNW 13.8 mph - N/A   Clear
4:56 AM 66.0 °F 57.9 °F 75% 29.98 in 10.0 mi NNW 15.0 mph - N/A   Clear
5:56 AM 64.0 °F 59.0 °F 84% 30.01 in 10.0 mi North 15.0 mph - N/A   Clear
6:56 AM 64.0 °F 55.9 °F 75% 30.04 in 10.0 mi North 12.7 mph - N/A   Clear
7:56 AM 66.0 °F 52.0 °F 60% 30.06 in 10.0 mi North 10.4 mph - N/A   Clear
8:56 AM 68.0 °F 50.0 °F 52% 30.08 in 10.0 mi North 16.1 mph - N/A   Clear
9:56 AM 71.1 °F 48.0 °F 44% 30.09 in 10.0 mi North 15.0 mph - N/A   Clear
10:56 AM 73.0 °F 48.0 °F 41% 30.09 in 10.0 mi North 13.8 mph - N/A   Clear
11:56 AM 75.0 °F 48.9 °F 40% 30.09 in 10.0 mi NNE 8.1 mph - N/A   Clear
12:56 PM 77.0 °F 48.9 °F 37% 30.08 in 10.0 mi North 9.2 mph - N/A   Clear
1:56 PM 77.0 °F 48.0 °F 36% 30.06 in 10.0 mi Variable 5.8 mph 18.4 mph N/A   Clear
2:56 PM 80.1 °F 48.0 °F 32% 30.06 in 10.0 mi North 10.4 mph - N/A   Clear
3:56 PM 79.0 °F 45.0 °F 30% 30.05 in 10.0 mi Calm Calm - N/A   Clear
4:56 PM 80.1 °F 45.0 °F 29% 30.04 in 10.0 mi NNE 6.9 mph - N/A   Clear
5:56 PM 80.1 °F 48.0 °F 32% 30.05 in 10.0 mi North 9.2 mph - N/A   Clear
6:56 PM 73.9 °F 57.0 °F 55% 30.07 in 10.0 mi SSE 10.4 mph - N/A   Clear
7:56 PM 70.0 °F 57.9 °F 65% 30.09 in 10.0 mi SSE 6.9 mph - N/A   Clear
8:56 PM 66.9 °F 59.0 °F 76% 30.10 in 10.0 mi South 4.6 mph - N/A   Clear
9:56 PM 66.0 °F 59.0 °F 78% 30.12 in 10.0 mi SSE 4.6 mph - N/A   Clear
10:56 PM 66.0 °F 60.1 °F 81% 30.14 in 10.0 mi SSE 4.6 mph - N/A   Clear
11:56 PM 64.0 °F 60.1 °F 87% 30.14 in 10.0 mi SSE 4.6 mph - N/A   Clear